TimeEST,TemperatureF,Dew PointF,Humidity,Sea Level PressureIn,VisibilityMPH,Wind Direction,Wind SpeedMPH,Gust SpeedMPH,PrecipitationIn,Events,Conditions,WindDirDegrees,DateUTC
12:51 AM,10.0,9.0,95,30.23,4.0,Calm,Calm,-,N/A,,Scattered Clouds,0,2013-01-03 05:51:00
1:51 AM,10.0,8.1,92,30.22,4.0,South,3.5,-,N/A,,Scattered Clouds,180,2013-01-03 06:51:00
2:51 AM,10.0,7.0,87,30.23,4.0,Calm,Calm,-,N/A,,Partly Cloudy,0,2013-01-03 07:51:00
3:51 AM,10.0,7.0,87,30.22,4.0,Calm,Calm,-,N/A,,Partly Cloudy,0,2013-01-03 08:51:00
4:51 AM,4.6,0.9,84,30.22,4.0,South,4.6,-,N/A,,Clear,190,2013-01-03 09:51:00
5:51 AM,5.0,0.7,82,30.22,4.0,South,4.6,-,N/A,,Clear,190,2013-01-03 10:51:00
6:51 AM,5.0,0.7,82,30.22,4.0,SSW,5.8,-,N/A,,Clear,200,2013-01-03 11:51:00
7:51 AM,8.1,5.0,87,30.23,6.0,SSW,5.8,-,N/A,,Partly Cloudy,210,2013-01-03 12:51:00
8:51 AM,12.9,9.0,84,30.21,6.0,South,8.1,-,N/A,,Scattered Clouds,190,2013-01-03 13:51:00
9:51 AM,16.0,10.0,77,30.21,6.0,SW,8.1,-,N/A,,Haze,220,2013-01-03 14:51:00
10:51 AM,19.4,10.4,68,30.14,8.0,SW,10.4,-,N/A,,Scattered Clouds,230,2013-01-03 15:51:00
11:51 AM,19.9,13.1,75,30.19,8.0,SW,10.4,-,N/A,,Mostly Cloudy,220,2013-01-03 16:51:00
12:51 PM,22.1,12.0,65,30.17,10.0,WSW,9.2,-,N/A,,Mostly Cloudy,240,2013-01-03 17:51:00
1:51 PM,25.0,13.1,61,30.14,10.0,WSW,12.7,21.9,N/A,,Mostly Cloudy,240,2013-01-03 18:51:00
2:20 PM,28.4,15.8,59,30.08,8.0,WSW,12.7,-,N/A,,Overcast,240,2013-01-03 19:20:00
2:51 PM,26.6,17.6,69,30.08,8.0,WSW,16.1,-,N/A,,Overcast,250,2013-01-03 19:51:00
3:51 PM,27.9,18.9,69,30.17,10.0,West,15.0,26.5,N/A,,Overcast,270,2013-01-03 20:51:00
4:51 PM,28.0,19.0,69,30.19,10.0,WSW,10.4,-,N/A,,Overcast,250,2013-01-03 21:51:00
5:51 PM,28.0,19.9,72,30.21,10.0,WSW,11.5,-,N/A,,Overcast,250,2013-01-03 22:51:00
6:51 PM,28.0,21.0,75,30.22,10.0,WSW,11.5,-,N/A,,Overcast,250,2013-01-03 23:51:00
7:51 PM,28.0,19.9,72,30.22,10.0,WSW,12.7,-,N/A,,Overcast,250,2013-01-04 00:51:00
8:32 PM,28.4,19.4,69,30.17,7.0,WSW,10.4,-,N/A,,Overcast,250,2013-01-04 01:32:00
8:51 PM,28.0,19.9,72,30.22,8.0,WSW,10.4,-,0.00,Snow,Light Snow,250,2013-01-04 01:51:00
9:51 PM,28.0,19.9,72,30.23,7.0,WSW,9.2,-,0.00,Snow,Light Snow,250,2013-01-04 02:51:00
10:51 PM,28.0,21.0,75,30.23,5.0,West,13.8,-,0.00,Snow,Light Snow,260,2013-01-04 03:51:00
11:51 PM,28.0,21.0,75,30.23,5.0,West,15.0,-,0.00,Snow,Light Snow,260,2013-01-04 04:51:00